DW2686 Weather Reports


Display with metric or nautical units.
time (UTC)temp
F
wind
direction
speed
MPH
gust
MPH
rain 1hr
in
rain 24hr
in
rain mn
in
humidity
%
barometer
mb
20210923173049 73 311 5.0 11.0 0.00 0.00 0.00 53 1016.6
20210923171555 73 11 2.0 6.0 0.00 0.00 0.00 57 1016.6
20210923170029 72 15 4.0 9.0 0.00 0.00 0.00 55 1016.6
20210923164515 72 331 0.0 10.0 0.00 0.00 0.00 58 1016.8
20210923163105 71 314 2.0 10.0 0.00 0.00 0.00 56 1016.9
20210923161514 71 44 4.0 11.0 0.00 0.00 0.00 56 1017.0
20210923160006 71 341 4.0 10.0 0.00 0.00 0.00 56 1017.0
20210923154628 70 337 3.0 9.0 0.00 0.00 0.00 59 1017.2
20210923153057 70 5 2.0 9.0 0.00 0.00 0.00 61 1017.2
20210923151826 68 322 1.0 10.0 0.00 0.00 0.00 63 1017.2
20210923150205 68 346 3.0 10.0 0.00 0.00 0.00 67 1017.2
20210923144615 67 299 3.0 11.0 0.00 0.00 0.00 66 1017.2
20210923143046 66 323 2.0 13.0 0.00 0.00 0.00 70 1017.2
20210923141549 65 292 1.0 9.0 0.00 0.00 0.00 73 1017.2
20210923140059 64 317 2.0 9.0 0.00 0.00 0.00 73 1017.1
20210923134532 63 360 2.0 9.0 0.00 0.00 0.00 76 1017.0
20210923131521 60 344 2.0 6.0 0.00 0.00 0.00 81 1016.9
20210923130020 58 333 1.0 4.0 0.00 0.00 0.00 73 1016.8
20210923124509 57 319 0.0 5.0 0.00 0.00 0.00 66 1016.7
20210923123006 56 315 1.0 4.0 0.00 0.00 0.00 66 1016.5
20210923121503 56 331 0.0 0.0 0.00 0.00 0.00 67 1016.4
20210923120203 56 331 0.0 0.0 0.00 0.00 0.00 68 1016.2
20210923114630 56 302 0.0 0.0 0.00 0.00 0.00 68 1016.1
20210923113054 56 302 0.0 0.0 0.00 0.00 0.00 70 1016.0
20210923111613 56 302 0.0 0.0 0.00 0.00 0.00 71 1016.0
20210923110125 56 302 0.0 0.0 0.00 0.00 0.00 72 1015.9
20210923104639 57 302 0.0 0.0 0.00 0.00 0.00 72 1015.8
20210923103118 57 302 0.0 0.0 0.00 0.00 0.00 73 1015.7
20210923101551 57 302 0.0 0.0 0.00 0.00 0.00 74 1015.7
20210923100125 58 302 0.0 0.0 0.00 0.00 0.00 75 1015.6
20210923094609 58 302 0.0 0.0 0.00 0.00 0.00 75 1015.6
20210923093045 58 302 0.0 3.0 0.00 0.00 0.00 76 1015.5
20210923091553 59 296 0.0 2.0 0.00 0.00 0.00 76 1015.2
20210923090103 59 296 0.0 3.0 0.00 0.00 0.00 75 1015.3
20210923084603 59 296 0.0 5.0 0.00 0.00 0.00 75 1015.5
20210923083040 59 349 0.0 3.0 0.00 0.00 0.00 74 1015.6
20210923081536 59 326 0.0 4.0 0.00 0.00 0.00 73 1015.6
20210923080033 59 323 0.0 1.0 0.00 0.00 0.00 74 1015.5
20210923074543 59 323 0.0 3.0 0.00 0.00 0.00 73 1015.6
20210923073117 59 327 0.0 1.0 0.00 0.00 0.00 73 1015.6
20210923071546 59 327 0.0 4.0 0.00 0.00 0.00 73 1015.7
20210923070027 59 342 0.0 1.0 0.00 0.00 0.00 75 1015.5
20210923064527 59 342 0.0 2.0 0.00 0.00 0.00 76 1015.5
20210923063024 59 342 0.0 1.0 0.00 0.00 0.00 79 1015.7
20210923061528 60 342 0.0 1.0 0.00 0.00 0.00 80 1015.7
20210923060038 60 342 0.0 0.0 0.00 0.00 0.00 80 1015.8
20210923054529 61 342 0.0 0.0 0.00 0.00 0.00 80 1015.8
20210923053029 62 342 0.0 1.0 0.00 0.00 0.00 80 1015.7
20210923051514 62 342 0.0 0.0 0.00 0.00 0.00 78 1015.8
20210923050013 63 342 0.0 3.0 0.00 0.00 0.00 78 1015.8
20210923044526 63 23 0.0 2.0 0.00 0.00 0.00 77 1015.9
20210923043005 64 316 0.0 3.0 0.00 0.00 0.00 77 1015.8
20210923041506 64 5 1.0 5.0 0.00 0.00 0.00 77 1015.9
20210923040005 64 338 2.0 5.0 0.00 0.00 0.00 76 1015.8
20210923034651 65 355 3.0 7.0 0.00 0.00 0.00 76 1015.8
20210923033117 65 294 1.0 10.0 0.00 0.00 0.00 76 1015.8
20210923031751 66 11 2.0 6.0 0.00 0.00 0.00 76 1015.7
20210923030116 66 323 2.0 11.0 0.00 0.00 0.00 76 1015.6
20210923024636 66 342 2.0 6.0 0.00 0.00 0.00 76 1015.6
20210923023130 66 328 0.0 11.0 0.00 0.00 0.00 76 1015.4
20210923021557 67 325 2.0 9.0 0.00 0.00 0.00 76 1015.4
20210923020157 67 355 1.0 6.0 0.00 0.00 0.00 76 1015.3
20210923014659 67 330 2.0 10.0 0.00 0.00 0.00 76 1015.3
20210923013206 68 317 2.0 10.0 0.00 0.00 0.00 76 1015.1
20210923011641 68 336 1.0 5.0 0.00 0.00 0.00 75 1015.0
20210923010105 69 346 2.0 8.0 0.00 0.00 0.00 75 1014.7
20210923004607 69 308 4.0 9.0 0.00 0.00 0.00 76 1014.5
20210923003056 69 318 1.0 5.0 0.00 0.00 0.00 75 1014.3
20210923001557 70 331 1.0 5.0 0.00 0.00 0.00 74 1014.1
20210923000124 70 341 1.0 5.0 0.00 0.00 0.00 73 1013.9
20210922234550 71 328 3.0 10.0 0.00 0.00 0.00 71 1013.7
20210922233127 72 320 0.0 9.0 0.00 0.00 0.00 71 1013.7
20210922231546 72 300 0.0 8.0 0.00 0.00 0.00 71 1013.6
20210922230045 73 314 0.0 8.0 0.00 0.00 0.00 70 1013.5
20210922224613 73 331 1.0 8.0 0.00 0.00 0.00 69 1013.4
20210922223044 74 346 1.0 11.0 0.00 0.00 0.00 67 1013.5
20210922221544 74 344 2.0 10.0 0.00 0.00 0.00 67 1013.4
20210922220102 75 304 3.0 6.0 0.00 0.00 0.00 68 1013.4
20210922214605 75 345 0.0 11.0 0.00 0.00 0.00 68 1013.4
20210922213031 75 332 4.0 9.0 0.00 0.00 0.00 67 1013.4
20210922211605 75 349 3.0 11.0 0.00 0.00 0.00 69 1013.3
20210922210105 76 301 2.0 13.0 0.00 0.00 0.00 69 1013.3
20210922204652 76 355 5.0 11.0 0.00 0.00 0.00 69 1013.3
20210922203026 76 31 4.0 10.0 0.00 0.00 0.00 73 1013.4
20210922201527 76 325 4.0 12.0 0.00 0.00 0.00 70 1013.6
20210922200126 78 292 5.0 11.0 0.00 0.00 0.00 67 1013.4
20210922194553 79 334 2.0 14.0 0.00 0.00 0.00 68 1013.4
20210922193048 79 333 5.0 11.0 0.00 0.00 0.00 64 1013.5
20210922191537 79 71 4.0 10.0 0.00 0.00 0.00 67 1013.6
20210922190107 79 277 4.0 10.0 0.00 0.00 0.00 67 1013.7
20210922184522 79 306 4.0 12.0 0.00 0.00 0.00 68 1014.1
20210922183029 79 344 5.0 11.0 0.00 0.00 0.00 70 1014.2
20210922181541 79 327 4.0 9.0 0.00 0.00 0.00 72 1014.3
20210922180019 78 300 2.0 13.0 0.00 0.00 0.00 75 1014.4
20210922174529 77 10 4.0 9.0 0.00 0.00 0.00 76 1014.8